This is the latest recevied weather packets stored in our database for station/object KP4FJC. If no packets are shown the sender has not sent any weather packets the latest 10 day(s).
| Time | Temp. | Humidity | Pressure | Rain* | Wind** | Luminosity | Snow |
|---|---|---|---|---|---|---|---|
| 1777545261 | 23.89° C | 95% | 1014.2 hPa | 0 mm | - | 30 W/m² | - |
| 1777544959 | 23.89° C | 96% | 1013.9 hPa | 0 mm | - | 24 W/m² | - |
| 1777544655 | 23.89° C | 96% | 1014 hPa | 0 mm | - | 17 W/m² | - |
| 1777544351 | 23.89° C | 96% | 1013.6 hPa | 0 mm | - | 10 W/m² | - |
| 1777544048 | 23.89° C | 96% | 1013.3 hPa | 0 mm | - | 10 W/m² | - |
| 1777543745 | 23.89° C | 96% | 1013.6 hPa | 0 mm | - | 7 W/m² | - |
| 1777543441 | 23.89° C | 96% | 1013.5 hPa | 0 mm | - | 5 W/m² | - |
| 1777543136 | 23.89° C | 96% | 1013.7 hPa | 0 mm | - | 3 W/m² | - |
| 1777542833 | 23.89° C | 96% | 1013.5 hPa | 0 mm | - | 1 W/m² | - |
| 1777542530 | 23.89° C | 96% | 1013.4 hPa | 0 mm | - | 1 W/m² | - |
| 1777542225 | 23.89° C | 96% | 1013.6 hPa | 0 mm | - | 0 W/m² | - |
| 1777541924 | 23.89° C | 96% | 1013.7 hPa | 0 mm | - | 0 W/m² | - |
| 1777541621 | 23.89° C | 96% | 1013.8 hPa | 0 mm | - | 0 W/m² | - |
| 1777541318 | 23.89° C | 95% | 1013.7 hPa | 0 mm | - | 0 W/m² | - |
| 1777541013 | 23.89° C | 95% | 1013.7 hPa | 0 mm | - | 0 W/m² | - |
| 1777540710 | 23.89° C | 95% | 1013.5 hPa | 0 mm | - | 0 W/m² | - |
| 1777540402 | 23.89° C | 95% | 1013.7 hPa | 0 mm | - | 0 W/m² | - |
| 1777540098 | 23.89° C | 95% | 1013.5 hPa | 0 mm | - | 0 W/m² | - |
| 1777539798 | 23.89° C | 95% | 1013.3 hPa | 0 mm | - | 0 W/m² | - |
| 1777539495 | 23.89° C | 95% | 1013.5 hPa | 0 mm | - | 0 W/m² | - |
| 1777539191 | 24.44° C | 95% | 1013.3 hPa | 0 mm | - | 0 W/m² | - |
| 1777538888 | 24.44° C | 95% | 1013.6 hPa | 0 mm | - | 0 W/m² | - |
| 1777538583 | 23.89° C | 95% | 1013.6 hPa | 0 mm | - | 0 W/m² | - |
| 1777538279 | 23.89° C | 94% | 1013.4 hPa | 0 mm | - | 0 W/m² | - |
| 1777537975 | 24.44° C | 94% | 1013.2 hPa | 0 mm | - | 0 W/m² | - |
* Rain latest hour (hover to see other rain measurements)
** Current wind speed in m/s (hover to see current wind gust speed)